| time (UTC) | temp C | wind direction | speed KPH | gust KPH | rain 1hr cm | rain 24hr cm | rain mn cm | humidity % | barometer mb |
| 20260905163520 | 17 | 1 | 0.0 | 0.0 | 0.00 | 0.00 | 0.00 | 52 | 1015.0 |
| 20260905162510 | 17 | 1 | 0.0 | 0.0 | 0.00 | 0.00 | 0.00 | 54 | 1014.9 |
| 20260905161500 | 16 | 1 | 0.0 | 0.0 | 0.00 | 0.00 | 0.00 | 56 | 1014.9 |
| 20260905160450 | 15 | 1 | 0.0 | 0.0 | 0.00 | 0.00 | 0.00 | 59 | 1015.0 |
| 20260905155440 | 15 | 1 | 0.0 | 0.0 | 0.00 | 0.00 | 0.00 | 60 | 1014.9 |
| 20260905154430 | 14 | 1 | 0.0 | 0.0 | 0.00 | 0.00 | 0.00 | 60 | 1014.9 |
| 20260905153420 | 13 | 1 | 0.0 | 0.0 | 0.00 | 0.03 | 0.00 | 61 | 1014.8 |
| 20260905152410 | 13 | 1 | 0.0 | 0.0 | 0.00 | 0.03 | 0.00 | 62 | 1014.7 |
| 20260905151400 | 13 | 1 | 0.0 | 0.0 | 0.00 | 0.03 | 0.00 | 62 | 1014.7 |
| 20260905150350 | 13 | 1 | 0.0 | 0.0 | 0.00 | 0.03 | 0.00 | 63 | 1014.7 |
| 20260905145340 | 12 | 1 | 0.0 | 0.0 | 0.00 | 0.03 | 0.00 | 63 | 1014.6 |
| 20260905144330 | 12 | 1 | 0.0 | 0.0 | 0.00 | 0.03 | 0.00 | 63 | 1014.5 |
| 20260905143320 | 12 | 1 | 0.0 | 0.0 | 0.00 | 0.03 | 0.00 | 63 | 1014.5 |
| 20260905142310 | 12 | 1 | 0.0 | 0.0 | 0.00 | 0.03 | 0.00 | 63 | 1014.4 |
| 20260905141300 | 12 | 1 | 0.0 | 0.0 | 0.00 | 0.03 | 0.00 | 63 | 1014.4 |
| 20260905140250 | 12 | 1 | 0.0 | 0.0 | 0.00 | 0.03 | 0.00 | 64 | 1014.4 |
| 20260905135240 | 12 | 1 | 0.0 | 0.0 | 0.00 | 0.03 | 0.00 | 63 | 1014.2 |
| 20260905134230 | 12 | 1 | 0.0 | 0.0 | 0.00 | 0.03 | 0.00 | 63 | 1014.2 |
| 20260905133220 | 12 | 1 | 0.0 | 0.0 | 0.00 | 0.03 | 0.00 | 63 | 1014.2 |
| 20260905132210 | 12 | 1 | 0.0 | 0.0 | 0.00 | 0.03 | 0.00 | 63 | 1014.2 |
| 20260905131200 | 12 | 1 | 0.0 | 0.0 | 0.00 | 0.03 | 0.00 | 63 | 1014.2 |
| 20260905130150 | 12 | 1 | 0.0 | 0.0 | 0.00 | 0.03 | 0.00 | 63 | 1014.3 |
| 20260905125140 | 12 | 1 | 0.0 | 0.0 | 0.00 | 0.03 | 0.00 | 63 | 1014.2 |
| 20260905124130 | 12 | 1 | 0.0 | 0.0 | 0.00 | 0.03 | 0.00 | 63 | 1014.3 |
| 20260905123120 | 12 | 1 | 0.0 | 0.0 | 0.00 | 0.03 | 0.00 | 63 | 1014.3 |
| 20260905122110 | 12 | 1 | 0.0 | 0.0 | 0.00 | 0.03 | 0.00 | 64 | 1014.4 |
| 20260905121100 | 12 | 1 | 0.0 | 0.0 | 0.00 | 0.03 | 0.00 | 64 | 1014.3 |
| 20260905120050 | 12 | 1 | 0.0 | 0.0 | 0.00 | 0.03 | 0.00 | 63 | 1014.2 |
| 20260905115040 | 13 | 1 | 0.0 | 0.0 | 0.00 | 0.03 | 0.00 | 63 | 1014.1 |
| 20260905114030 | 13 | 1 | 0.0 | 0.0 | 0.00 | 0.03 | 0.00 | 63 | 1014.2 |
| 20260905113020 | 13 | 1 | 0.0 | 0.0 | 0.00 | 0.03 | 0.00 | 62 | 1014.3 |
| 20260905112010 | 13 | 1 | 0.0 | 0.0 | 0.00 | 0.03 | 0.00 | 62 | 1014.2 |
| 20260905111000 | 13 | 1 | 0.0 | 0.0 | 0.00 | 0.03 | 0.00 | 62 | 1014.4 |
| 20260905105950 | 13 | 1 | 0.0 | 0.0 | 0.00 | 0.03 | 0.00 | 62 | 1014.4 |
| 20260905104940 | 13 | 2 | 0.0 | 0.0 | 0.00 | 0.03 | 0.00 | 62 | 1014.3 |
| 20260905103930 | 13 | 1 | 0.0 | 0.0 | 0.00 | 0.03 | 0.00 | 61 | 1014.4 |
| 20260905102920 | 13 | 2 | 0.0 | 0.0 | 0.00 | 0.03 | 0.00 | 61 | 1014.5 |
| 20260905101910 | 13 | 1 | 0.0 | 0.0 | 0.00 | 0.03 | 0.00 | 62 | 1014.5 |
| 20260905100900 | 13 | 1 | 0.0 | 0.0 | 0.00 | 0.03 | 0.00 | 61 | 1014.5 |
| 20260905095850 | 13 | 2 | 0.0 | 0.0 | 0.00 | 0.03 | 0.00 | 61 | 1014.6 |
| 20260905094840 | 13 | 1 | 0.0 | 0.0 | 0.00 | 0.03 | 0.00 | 61 | 1014.6 |
| 20260905093830 | 14 | 2 | 0.0 | 0.0 | 0.00 | 0.03 | 0.00 | 61 | 1014.6 |
| 20260905092820 | 14 | 2 | 0.0 | 0.0 | 0.00 | 0.03 | 0.00 | 61 | 1014.7 |
| 20260905091810 | 14 | 2 | 0.0 | 0.0 | 0.00 | 0.03 | 0.00 | 61 | 1014.8 |
| 20260905090800 | 14 | 2 | 0.0 | 0.0 | 0.00 | 0.03 | 0.00 | 60 | 1014.9 |
| 20260905085750 | 15 | 2 | 0.0 | 0.0 | 0.00 | 0.03 | 0.00 | 60 | 1014.9 |
| 20260905084740 | 15 | 2 | 0.0 | 0.0 | 0.00 | 0.03 | 0.00 | 59 | 1015.0 |
| 20260905083730 | 15 | 1 | 0.0 | 0.0 | 0.00 | 0.03 | 0.00 | 59 | 1015.0 |
| 20260905082720 | 15 | 1 | 0.0 | 0.0 | 0.00 | 0.03 | 0.00 | 59 | 1015.1 |
| 20260905081710 | 15 | 1 | 0.0 | 0.0 | 0.00 | 0.03 | 0.00 | 59 | 1015.0 |
| 20260905080700 | 16 | 1 | 0.0 | 0.0 | 0.00 | 0.03 | 0.00 | 58 | 1015.2 |
| 20260905075650 | 16 | 2 | 0.0 | 0.0 | 0.00 | 0.03 | 0.00 | 58 | 1015.2 |
| 20260905074640 | 16 | 2 | 0.0 | 0.0 | 0.00 | 0.03 | 0.00 | 58 | 1015.1 |
| 20260905073630 | 16 | 1 | 0.0 | 0.0 | 0.00 | 0.05 | 0.00 | 60 | 1015.1 |
| 20260905072620 | 16 | 1 | 0.0 | 0.0 | 0.00 | 0.05 | 0.00 | 60 | 1015.1 |
| 20260905071610 | 16 | 1 | 0.0 | 0.0 | 0.00 | 0.08 | 0.00 | 59 | 1015.0 |
| 20260905070600 | 16 | 1 | 0.0 | 0.0 | 0.00 | 0.08 | 0.00 | 53 | 1015.0 |
| 20260905065550 | 16 | 2 | 0.0 | 0.0 | 0.00 | 0.08 | 0.08 | 53 | 1014.9 |
| 20260905064540 | 16 | 1 | 0.0 | 0.0 | 0.00 | 0.08 | 0.08 | 53 | 1014.9 |
| 20260905063530 | 17 | 1 | 0.0 | 0.0 | 0.00 | 0.10 | 0.08 | 52 | 1014.8 |
| 20260905062520 | 17 | 1 | 0.0 | 0.0 | 0.00 | 0.10 | 0.08 | 52 | 1014.8 |
| 20260905061510 | 17 | 1 | 0.0 | 0.0 | 0.00 | 0.10 | 0.08 | 52 | 1014.8 |
| 20260905060500 | 17 | 1 | 0.0 | 0.0 | 0.00 | 0.10 | 0.08 | 52 | 1015.0 |
| 20260905055450 | 17 | 1 | 0.0 | 0.0 | 0.00 | 0.10 | 0.08 | 51 | 1015.0 |
| 20260905054440 | 17 | 1 | 0.0 | 0.0 | 0.00 | 0.10 | 0.08 | 51 | 1015.0 |
| 20260905053430 | 17 | 1 | 0.0 | 0.0 | 0.00 | 0.10 | 0.08 | 51 | 1014.9 |
| 20260905052420 | 17 | 1 | 0.0 | 0.0 | 0.00 | 0.10 | 0.08 | 51 | 1014.9 |
| 20260905051410 | 18 | 1 | 0.0 | 0.0 | 0.00 | 0.10 | 0.08 | 51 | 1015.0 |
| 20260905050400 | 18 | 1 | 0.0 | 0.0 | 0.00 | 0.10 | 0.08 | 49 | 1015.1 |
| 20260905045350 | 18 | 1 | 0.0 | 0.0 | 0.00 | 0.10 | 0.08 | 49 | 1015.0 |
| 20260905044340 | 18 | 1 | 0.0 | 0.0 | 0.00 | 0.10 | 0.08 | 48 | 1014.9 |
| 20260905043330 | 18 | 1 | 0.0 | 0.0 | 0.00 | 0.10 | 0.08 | 47 | 1014.8 |
| 20260905042320 | 19 | 1 | 0.0 | 0.0 | 0.00 | 0.10 | 0.08 | 46 | 1014.7 |
| 20260905041310 | 19 | 1 | 0.0 | 0.0 | 0.00 | 0.10 | 0.08 | 45 | 1014.7 |
| 20260905040300 | 20 | 2 | 0.0 | 0.0 | 0.00 | 0.10 | 0.08 | 44 | 1014.7 |
| 20260905035250 | 20 | 1 | 0.0 | 0.0 | 0.00 | 0.10 | 0.08 | 43 | 1014.6 |
| 20260905034240 | 20 | 1 | 0.0 | 0.0 | 0.00 | 0.10 | 0.08 | 42 | 1014.5 |
| 20260905033230 | 21 | 1 | 0.0 | 0.0 | 0.00 | 0.10 | 0.08 | 41 | 1014.3 |
| 20260905032220 | 21 | 1 | 0.0 | 0.0 | 0.00 | 0.10 | 0.08 | 41 | 1014.2 |
| 20260905031210 | 21 | 1 | 0.0 | 0.0 | 0.00 | 0.10 | 0.08 | 40 | 1014.2 |
| 20260905030200 | 22 | 1 | 0.0 | 0.0 | 0.00 | 0.10 | 0.08 | 40 | 1014.1 |
| 20260905025150 | 22 | 1 | 0.0 | 0.0 | 0.00 | 0.10 | 0.08 | 41 | 1014.1 |
| 20260905024140 | 23 | 1 | 0.0 | 0.0 | 0.00 | 0.10 | 0.08 | 41 | 1014.1 |
| 20260905023130 | 23 | 1 | 0.0 | 0.0 | 0.00 | 0.10 | 0.08 | 42 | 1014.1 |
| 20260905022120 | 23 | 1 | 0.0 | 0.0 | 0.00 | 0.10 | 0.08 | 42 | 1014.1 |
| 20260905021110 | 24 | 1 | 0.0 | 0.0 | 0.00 | 0.10 | 0.08 | 42 | 1014.0 |
| 20260905020100 | 24 | 1 | 0.0 | 0.0 | 0.00 | 0.10 | 0.08 | 41 | 1013.9 |
| 20260905015050 | 25 | 1 | 0.0 | 0.0 | 0.00 | 0.10 | 0.08 | 43 | 1013.9 |
| 20260905014040 | 25 | 1 | 0.0 | 0.0 | 0.00 | 0.10 | 0.08 | 43 | 1013.9 |
| 20260905013030 | 25 | 1 | 0.0 | 0.0 | 0.00 | 0.10 | 0.08 | 43 | 1013.9 |
| 20260905012020 | 25 | 1 | 0.0 | 0.0 | 0.00 | 0.10 | 0.08 | 42 | 1014.0 |
| 20260905011010 | 25 | 1 | 0.0 | 0.0 | 0.00 | 0.10 | 0.08 | 42 | 1014.0 |
| 20260905010000 | 25 | 1 | 0.0 | 0.0 | 0.00 | 0.10 | 0.08 | 41 | 1014.0 |
| 20260905004950 | 26 | 1 | 0.0 | 0.0 | 0.00 | 0.10 | 0.08 | 41 | 1014.0 |
| 20260905003940 | 26 | 1 | 0.0 | 0.0 | 0.00 | 0.10 | 0.08 | 40 | 1014.0 |
| 20260905002930 | 26 | 1 | 0.0 | 0.0 | 0.00 | 0.10 | 0.08 | 40 | 1014.0 |
| 20260905001920 | 26 | 1 | 0.0 | 0.0 | 0.00 | 0.10 | 0.08 | 40 | 1014.1 |
| 20260905000910 | 26 | 1 | 0.0 | 0.0 | 0.00 | 0.10 | 0.08 | 39 | 1014.0 |
| 20260904235900 | 26 | 1 | 0.0 | 0.0 | 0.00 | 0.10 | 0.08 | 38 | 1014.0 |
| 20260904234850 | 26 | 1 | 0.0 | 0.0 | 0.00 | 0.10 | 0.08 | 38 | 1014.1 |
| 20260904233840 | 26 | 1 | 0.0 | 0.0 | 0.00 | 0.10 | 0.08 | 38 | 1014.2 |
| 20260904232830 | 26 | 1 | 0.0 | 0.0 | 0.00 | 0.10 | 0.08 | 37 | 1014.2 |
| 20260904231820 | 26 | 1 | 0.0 | 0.0 | 0.00 | 0.10 | 0.08 | 38 | 1014.3 |
| 20260904230810 | 26 | 1 | 0.0 | 0.0 | 0.00 | 0.10 | 0.08 | 37 | 1014.2 |
| 20260904225800 | 26 | 1 | 0.0 | 0.0 | 0.00 | 0.10 | 0.08 | 38 | 1014.4 |
| 20260904224750 | 26 | 1 | 0.0 | 0.0 | 0.00 | 0.10 | 0.08 | 39 | 1014.4 |
| 20260904223740 | 26 | 1 | 0.0 | 0.0 | 0.00 | 0.10 | 0.08 | 39 | 1014.5 |
| 20260904222730 | 26 | 1 | 0.0 | 0.0 | 0.00 | 0.10 | 0.08 | 40 | 1014.6 |
| 20260904221720 | 26 | 0 | 0.0 | 0.0 | 0.00 | 0.10 | 0.08 | 41 | 1014.7 |
| 20260904220710 | 26 | 1 | 0.0 | 0.0 | 0.00 | 0.10 | 0.08 | 41 | 1014.8 |
| 20260904215700 | 26 | 1 | 0.0 | 0.0 | 0.00 | 0.10 | 0.08 | 42 | 1014.8 |
| 20260904214650 | 26 | 1 | 0.0 | 0.0 | 0.00 | 0.10 | 0.08 | 42 | 1014.8 |
| 20260904213640 | 25 | 0 | 0.0 | 0.0 | 0.00 | 0.10 | 0.08 | 42 | 1014.8 |
| 20260904212630 | 25 | 1 | 0.0 | 0.0 | 0.00 | 0.10 | 0.08 | 43 | 1014.8 |
| 20260904211620 | 25 | 1 | 0.0 | 0.0 | 0.00 | 0.10 | 0.08 | 44 | 1014.9 |
| 20260904210610 | 24 | 1 | 0.0 | 0.0 | 0.00 | 0.10 | 0.08 | 45 | 1015.0 |
| 20260904205600 | 24 | 0 | 0.0 | 0.0 | 0.00 | 0.10 | 0.08 | 48 | 1015.1 |
| 20260904204550 | 24 | 0 | 0.0 | 0.0 | 0.00 | 0.10 | 0.08 | 50 | 1015.2 |
| 20260904203540 | 23 | 0 | 0.0 | 0.0 | 0.00 | 0.10 | 0.08 | 51 | 1015.3 |
| 20260904202530 | 23 | 0 | 0.0 | 0.0 | 0.00 | 0.10 | 0.08 | 54 | 1015.2 |
| 20260904201520 | 23 | 0 | 0.0 | 0.0 | 0.00 | 0.10 | 0.08 | 56 | 1015.3 |
| 20260904200510 | 23 | 0 | 0.0 | 0.0 | 0.00 | 0.10 | 0.08 | 57 | 1015.2 |
| 20260904195500 | 23 | 0 | 0.0 | 0.0 | 0.00 | 0.10 | 0.08 | 59 | 1015.2 |
| 20260904194450 | 23 | 0 | 0.0 | 0.0 | 0.00 | 0.10 | 0.08 | 60 | 1015.2 |
| 20260904193440 | 22 | 1 | 0.0 | 0.0 | 0.00 | 0.10 | 0.08 | 61 | 1015.2 |
| 20260904192430 | 22 | 0 | 0.0 | 0.0 | 0.00 | 0.10 | 0.08 | 62 | 1015.2 |
| 20260904191420 | 22 | 0 | 0.0 | 0.0 | 0.00 | 0.10 | 0.08 | 63 | 1015.3 |
| 20260904190410 | 22 | 0 | 0.0 | 0.0 | 0.00 | 0.10 | 0.08 | 65 | 1015.3 |
| 20260904185400 | 21 | 0 | 0.0 | 0.0 | 0.00 | 0.10 | 0.08 | 67 | 1015.3 |
| 20260904184350 | 21 | 0 | 0.0 | 0.0 | 0.00 | 0.10 | 0.08 | 68 | 1015.3 |
| 20260904183340 | 21 | 0 | 0.0 | 0.0 | 0.00 | 0.10 | 0.08 | 69 | 1015.4 |
| 20260904182330 | 20 | 0 | 0.0 | 0.0 | 0.00 | 0.10 | 0.08 | 71 | 1015.2 |
| 20260904181320 | 20 | 0 | 0.0 | 0.0 | 0.00 | 0.10 | 0.08 | 71 | 1015.2 |
| 20260904180310 | 20 | 0 | 0.0 | 0.0 | 0.00 | 0.10 | 0.08 | 72 | 1015.3 |
| 20260904175300 | 20 | 0 | 0.0 | 0.0 | 0.00 | 0.10 | 0.08 | 72 | 1015.2 |
| 20260904174250 | 19 | 0 | 0.0 | 0.0 | 0.00 | 0.10 | 0.08 | 74 | 1015.2 |
| 20260904173240 | 19 | 0 | 0.0 | 0.0 | 0.00 | 0.10 | 0.08 | 76 | 1015.3 |
| 20260904172230 | 18 | 0 | 0.0 | 0.0 | 0.00 | 0.10 | 0.08 | 77 | 1015.1 |
| 20260904171220 | 18 | 0 | 0.0 | 0.0 | 0.00 | 0.10 | 0.08 | 77 | 1015.0 |
| 20260904170210 | 18 | 0 | 0.0 | 0.0 | 0.00 | 0.10 | 0.08 | 78 | 1015.1 |
| 20260904165200 | 18 | 0 | 0.0 | 0.0 | 0.00 | 0.10 | 0.08 | 78 | 1015.1 |
| 20260904164150 | 18 | 0 | 0.0 | 0.0 | 0.00 | 0.10 | 0.08 | 79 | 1014.9 |